Regional Weather Roundup
Issued by NWS

Home | Current Version | Previous Version | Graphics & Text | Print | Product List | Glossary On
Versions: 1 2 3 4 5 6 7 8 9 10 11 12 13 14 15 16 17 18 19 20 21 22 23 24 25 26 27 28
000
ASUS45 KTFX 072110
RWRMT
MONTANA REGIONAL WEATHER ROUNDUP
NATIONAL WEATHER SERVICE GREAT FALLS MT
200 PM MST WED DEC 07 2016

NOTE: "FAIR" INDICATES FEW OR NO CLOUDS BELOW 12000 FEET WITH NO
SIGNIFICANT WEATHER AND/OR OBSTRUCTIONS TO VISIBILITY.

MTZ001>007-043-072200-
WEST OF THE DIVIDE

CITY           SKY/WX    TMP DP  RH WIND       PRES   REMARKS
KALISPELL      MOSUNNY   12   0  58 N8        30.46S WCI   0
MISSOULA       CLOUDY    15   3  59 E13       30.43S WCI   1
BUTTE          CLOUDY     6  -2  69 CALM      30.24R
MULLAN PASS    LGT SNOW   6   3  87 SE5       30.15S FOG
ANACONDA         N/A      9  -6  52 SW3       30.29S
DEER LODGE       N/A      9  -2  61 E3        30.35R
EUREKA           N/A      9   3  78 CALM      30.51F
HAMILTON         N/A     16   3  57 N3        30.36S
LIBBY            N/A     18   3  53 CALM      30.46F
PLAINS           N/A     23   5  46 CALM      30.44S
RONAN            N/A     15   9  77 CALM      30.41S
$$

MTZ008-052>055-072200-
SOUTHWEST MONTANA

CITY           SKY/WX    TMP DP  RH WIND       PRES   REMARKS
BOZEMAN        CLOUDY     7  -2  66 CALM      30.36F
DILLON         SUNNY     10  -1  61 CALM      30.24F
W YELLOWSTONE  SUNNY      5  -8  56 CALM      30.15S
ENNIS          CLOUDY     5  -4  66 W5        30.30S
THREE FORKS      N/A      8   8 100 NW5       30.33S
TWIN BRIDGES     N/A     12  -4  48 NW8       30.23F WCI   0
$$

MTZ009-010-012-014-046-048-049-054-072200-
EAST SLOPES AND CENTRAL MONTANA

CITY           SKY/WX    TMP DP  RH WIND       PRES   REMARKS
CUT BANK       SUNNY     -1  -9  68 N9        30.46S WCI -16
GREAT FALLS    CLOUDY     2  -7  66 W5        30.48S
MALMSTROM AFB  CLOUDY     2  -5  72 NW7       30.51S WCI -10
HELENA         CLOUDY     6  -6  57 CALM      30.43S
AUGUSTA        PTSUNNY   -1  -8  71 SW1       30.39S
BOWMANS CRNR   CLOUDY    -2  -8  73 NE3       30.39R
CHOTEAU          N/A      3  -8  60 MISG      30.47R
CONRAD           N/A      1  -6  72 W6        30.45S WCI -10
FAIRFIELD      FLURRIES   1  -7  68 SW2       30.45S
POWER          FLURRIES   0  -7  70 W10       30.46S WCI -16
RAYNESFORD     PTSUNNY   -2  -9  71 NW8       30.45R WCI -16
ULM            CLOUDY     0  -7  71 NW6       30.49S WCI -11
$$

MTZ011-013-016-021-045-047-050-051-072200-
NORTH CENTRAL MONTANA

CITY           SKY/WX    TMP DP  RH WIND       PRES   REMARKS
HAVRE          SUNNY      5  -5  63 NW14      30.57S WCI -12
LEWISTOWN      SUNNY      1  -7  68 W8        30.41R WCI -13
N BAR RANCH    CLOUDY     5  -9  51 NW9       30.36R WCI  -9
CHINOOK          N/A      3  -6  66 W15       30.58S WCI -15
DENTON         PTSUNNY    1  -6  71 NE6G23    30.44R WCI -10
GEYSER           N/A      0  -8  68 W18G24    30.41R WCI -21
GRASS RANGE      N/A      3  -6  66 W20       30.39R WCI -18
JUDITH GAP       N/A     -4  -8  81 N21       30.33R WCI -28
ROY              N/A      3  -4  70 MISG      30.43R
STANFORD         N/A     -2  -8  75 NW10      30.38R WCI -19
WINIFRED         N/A      2  -6  71 MISG      30.45R
$$

MTZ017>020-022>027-061-062-072200-
NORTHEAST MONTANA

CITY           SKY/WX    TMP DP  RH WIND       PRES   REMARKS
GLASGOW        PTSUNNY    4  -6  63 NW24      30.51R WCI -19
JORDAN           N/A      5  -5  63 NW22      30.49S WCI -16
SIDNEY         SUNNY      2  -6  69 NW21G30   30.47R WCI -20
WOLF POINT     CLOUDY     5  -6  60 W15G25    30.52R WCI -13
PLENTYWOOD       N/A      0  -8  71 NW20G25   30.41R WCI -22
POPLAR           N/A      3  -8  60 W17G25    30.50R WCI -17
SCOBEY           N/A      0 -13  54 NW18      30.39R WCI -21
$$

MTZ028>42-056>058-072200-
SOUTHCENTRAL AND SOUTHEAST MONTANA

CITY           SKY/WX    TMP DP  RH WIND       PRES   REMARKS
BILLINGS       MOSUNNY   12  -3  51 VRB3      30.41S
LIVINGSTON     SUNNY      9  -3  58 W9        30.31S WCI  -4
MILES CITY     MOSUNNY   10  -5  50 NW21      30.48S WCI  -9
BIG TIMBER     SUNNY     10   0  61 SE8       30.35S WCI  -1
EKALAKA          N/A      1  -9  63 W16       30.28R WCI -19
FORSYTH          N/A      9  -6  52 NW14G24   30.49S WCI  -8
HARLOWTON      PTSUNNY    6  -6  56 NE15      30.34S WCI -12
LAUREL           N/A     12  -6  44 CALM      30.35S
ROUNDUP          N/A     12  -7  42 NW1       30.30S
$$

REGIONAL REPORTS...DAKOTAS

CITY           SKY/WX    TMP DP  RH WIND       PRES   REMARKS
WILLISTON      CLOUDY     2  -6  69 NW18      30.45R WCI -19
MINOT          LGT SNOW   7   1  76 W32G43    30.26R VSB 1   WCI -17
DICKINSON      MIX PCPN   0  -6  76 NW31G38   30.32R VSB 1   WCI -26
BEACH          LGT SNOW   1  -4  78 NW25G33   30.42R WCI -22
CROSBY         LGT SNOW   1  -2  85 NW23G33   30.40R WCI -21
TIOGA          LGT SNOW   1   0  92 NW25G36   30.35R WCI -22
WATFORD CITY   CLOUDY     0  -6  78 W23       30.41R WCI -24
BISMARCK       CLOUDY     4  -2  76 NW24G36   30.31R WCI -19
GRAND FORKS    LGT SNOW  20  15  81 NW24G30   30.01R VSB 1   WCI   3
FARGO          LGT SNOW  17  10  74 W26G37    30.07R WCI  -2
BUFFALO SD       N/A      8  -3  61 NW28G37   30.27R WCI -14
RAPID CITY     SUNNY     15  -4  42 NW18      30.33R WCI  -2
$$

REGIONAL REPORTS...WYOMING/IDAHO/WASHINGTON

CITY           SKY/WX    TMP DP  RH WIND       PRES   REMARKS
GILLETTE       CLOUDY     2  -4  76 W9        30.33R WCI -13
SHERIDAN       SUNNY      6  -4  63 W8        30.38R WCI  -7
BUFFALO WY     CLOUDY     4  -6  63 N3        30.29R
CODY           SUNNY     10  -2  58 CALM      30.30R
YELLOWSTONE LA   N/A      7  -2  66 VRB5      30.06R
IDAHO FALLS    PTSUNNY   19   3  49 CALM      30.28S
SALMON         CLOUDY    18   9  68 CALM      30.29S
BOISE          SUNNY     23  17  78 S12       30.36F WCI  12
SPOKANE        PTSUNNY   25  13  60 SE3       30.39S
$$

REGIONAL REPORTS...ALBERTA

CITY           SKY/WX    TMP DP  RH WIND       PRES   REMARKS
EDMONTON       CLOUDY    -2 -13  60 NW7       30.64R WCI -16
CALGARY        MOSUNNY   -2 -13  60 N13       30.48S WCI -21
LETHBRIDGE     MOSUNNY    0  -9  65 NW8       30.56S WCI -15
MEDICINE HAT   MOSUNNY    1  -8  66 W14       30.60S WCI -17
WATERTON GATE    N/A     -2 -11  65 E7          N/A  WCI -16
CARDSTON         N/A     -2 -11  65 N5          N/A
MILK RIVER       N/A      0  -8  71 NW13        N/A  WCI -18
ONEFOUR          N/A     -2  -9  71 NW17        N/A  WCI -24
$$

REGIONAL REPORTS...SASKATCHEWAN

CITY           SKY/WX    TMP DP  RH WIND       PRES   REMARKS
SWIFT CURRENT  PTSUNNY   -6  -9  84 W18       30.45R WCI -29
REGINA         CLOUDY     5  -2  72 NW22G29   30.42R WCI -16
SASKATOON      FLURRIES   5  -2  72 NW14      30.52R WCI -12
CYPRESS HILLS    N/A    -11 -17  77 NW12G18     N/A  WCI -31
VAL MARIE        N/A     -2 -11  65 NW15        N/A  WCI -22
ROCKGLEN         N/A     -4  -9  77 NW15G21     N/A  WCI -25
ASSINIBOIA       N/A     -2 -11  65 NW10        N/A  WCI -19
$$




USA.gov is the U.S. government's official web portal to all federal, state and local government web resources and services.